Home   Weather   Kornwestheim   Past weeks

Flag for Germany Past Weather in Kornwestheim, Baden-Württemberg, Germany — Yesterday and Last 2 Weeks

Now
52 °F

Scattered clouds.


Feels Like: 51 °F
Forecast: 36 / 62 °F
Wind: 5 mph from North

Location: Stuttgart-Echterdingen

Current Time: Apr 29, 2017 at 11:37:36 am

Latest Report: Apr 29, 2017 at 10:50 am


Visibility: N/A

Pressure: 30.04 "Hg

Humidity: 58%

Dew Point: 37 °F

Location of KornwestheimLocation

Past Weather in Kornwestheim — Graph

°F

Kornwestheim Temperature Yesterday

Maximum temperature yesterday: 52 °F (at 4:50 pm)
Minimum temperature yesterday: 39 °F (at 12:20 am)
Average temperature yesterday: 44 °F

High & Low Weather Summary for the Past Weeks

 TemperatureHumidityPressure
High66 °F (Apr 24, 5:50 pm)100% (Apr 18, 9:20 pm)30.54 "Hg (Apr 18, 9:20 pm)
Low27 °F (Apr 20, 5:20 am)27% (Apr 21, 4:50 pm)29.74 "Hg (Apr 25, 2:20 am)
Average43 °F72%30.10 "Hg
* Reported Apr 14 9:20 am — Apr 29 9:50 am, Kornwestheim, Weather by CustomWeather, © 2017

Note: Actual official high and low records may vary slightly from our data, if they occured in-between our weather recording intervals... More about our weather records

Advertising

Kornwestheim Weather History for the Previous 24 Hours

Scroll right to see more
 ConditionsComfort  
Time TempWeatherWind HumidityBarometerVisibility
9:50 am
Sat, Apr 29
48 °FPassing clouds.5 mph66%30.07 "HgN/A
9:20 am48 °FPassing clouds.6 mph71%30.07 "HgN/A
8:50 am45 °FPassing clouds.5 mph71%30.07 "HgN/A
8:20 am43 °FPassing clouds.3 mph76%30.07 "HgN/A
7:50 am41 °FPassing clouds.3 mph76%30.07 "HgN/A
7:20 am39 °FScattered clouds.3 mph81%30.04 "HgN/A
6:50 am39 °FScattered clouds.3 mph81%30.04 "HgN/A
6:20 am39 °FScattered clouds.3 mph81%30.07 "HgN/A
5:50 am39 °FPassing clouds.2 mph81%30.04 "HgN/A
5:20 am39 °FPassing clouds.1 mph81%30.04 "HgN/A
4:50 am41 °FPartly cloudy.2 mph81%30.04 "HgN/A
4:20 am41 °FSprinkles. Passing clouds.5 mph81%30.04 "HgN/A
3:50 am41 °FSprinkles. Partly cloudy.7 mph76%30.04 "HgN/A
3:20 am41 °FPartly cloudy.7 mph76%30.04 "HgN/A
2:50 am41 °FPassing clouds.5 mph76%30.04 "HgN/A
2:20 am41 °FPassing clouds.5 mph76%30.04 "HgN/A
1:50 am41 °FPassing clouds.5 mph76%30.04 "HgN/A
1:20 am41 °FPassing clouds.3 mph70%30.04 "HgN/A
12:50 am43 °FPartly cloudy.5 mph66%30.04 "HgN/A
12:20 am43 °FPassing clouds.2 mph71%30.04 "HgN/A
11:50 pm
Fri, Apr 28
43 °FClear.2 mph66%30.04 "Hg10 mi
10:50 pm41 °FPassing clouds.3 mph70%30.04 "HgN/A
10:20 pm43 °FPassing clouds.3 mph66%30.01 "HgN/A
9:50 pm43 °FPassing clouds.5 mph66%30.01 "HgN/A
9:20 pm43 °FPassing clouds.5 mph66%30.01 "HgN/A
8:50 pm43 °FPassing clouds.8 mph66%29.98 "HgN/A
8:20 pm46 °FSunny.5 mph53%29.98 "Hg10 mi
7:50 pm48 °FScattered clouds.6 mph54%29.98 "HgN/A
7:20 pm46 °FScattered clouds.6 mph57%29.95 "HgN/A
6:50 pm48 °FScattered clouds.7 mph50%29.95 "HgN/A
6:20 pm46 °FPartly sunny.22 mph57%29.95 "HgN/A
5:50 pm50 °FPartly sunny.14 mph50%29.95 "HgN/A
5:20 pm52 °FScattered clouds.12 mph44%29.95 "HgN/A
4:50 pm52 °FScattered clouds.14 mph41%29.92 "HgN/A
4:20 pm50 °FPartly sunny.2 mph58%29.92 "HgN/A
3:50 pm48 °FPartly sunny.2 mph54%29.92 "HgN/A
3:20 pm48 °FPartly sunny.3 mph54%29.92 "HgN/A
2:50 pm48 °FPartly sunny.10 mph54%29.92 "HgN/A
2:20 pm50 °FScattered clouds.7 mph54%29.92 "HgN/A
1:50 pm48 °FScattered clouds.14 mph62%29.92 "HgN/A
1:20 pm48 °FScattered clouds.5 mph58%29.89 "HgN/A
12:50 pm45 °FSprinkles. Scattered clouds.10 mph66%29.89 "HgN/A
12:20 pm46 °FScattered clouds.7 mph66%29.89 "HgN/A
11:50 am48 °FScattered clouds.7 mph66%29.89 "HgN/A
11:20 am45 °FScattered clouds.6 mph76%29.89 "HgN/A
Weather by CustomWeather, © 2017

See weather overviewHow to use our weather pages